User: anonymous   Login
Location: Unspecified
(0.0000°N, 0.0000°E)
Time: 22:59:19
(UTC+00:00)
Language:

STARLINK-34708 - Orbit

View from above orbital plane
View from above orbital plane
View from above satellite
View from above satellite

Ground track
Ground track

The orbit is defined by the following mean orbital elements,

1 65062U          26145.20853751 +.00000000 +00000-0 +49345-3 0 00009
2 65062  97.4473 222.2719 0002908 129.7176 230.4307 15.05657168    05
Epoch (UTC): 25 May 2026 05:00:17
Eccentricity: 0.0002908
inclination: 97.4473°
perigee height: 547 km
apogee height: 552 km
right ascension of ascending node: 222.2719°
argument of perigee: 129.7176°
revolutions per day: 15.05657168
mean anomaly at epoch: 230.4307°

The dashed part of the orbit path shows where the satellite is in the earth's shadow,  

DLR